Location: Gro�sch�nbrunn
(49.5760°N, 11.8868°E)
Time: 15:13:42
(UTC+00:00)

ISS - Pass Details

Date: 04 December 2020
Orbit: 418 x 419 km, 51.6° (Epoch: 17 January)

Event Time Altitude Azimuth Distance (km) Brightness Sun altitude
Rises 17:09:40 0° 288° (WNW) 2,368 1.1 -17.9°
Reaches altitude 10° 17:11:46 10° 286° (WNW) 1,502 0.0 -18.2°
Maximum altitude 17:15:06 65° 205° (SSW) 465 -3.5 -18.7°
Enters shadow 17:15:52 47° 145° (SE) 567 -3.3 -18.9°
